EDW9HE LEMG-LSGG

Flight info

Callsign EDW9HE
Flight time 1h 55m
Altitude 43000
Route BLN L27 YAKXU N871 TOPTU DCT TOU DCT GAI/N0452F300 DCT MEN DCT NINUN DCT LATAM DCT ETREK DCT LUXAN G53 LTP Z16 BELUS
Aircraft A359/H-SDE2E3GHIJ3J4J5LM1ORWXY/LB1D1

Departure

Time 2026-05-04 13:06
Airport Málaga-Costa del Sol Airport (LEMG)

Arrival

Time 2026-05-04 15:01
Airport Geneva International Airport (LSGG)
Time Latitude Longitude Altitude Speed Heading
2026-05-04 12:52 36.67905 -4.48580 45 ft 0 kts 26°
2026-05-04 13:02 36.67912 -4.48576 45 ft 4 kts 26°
2026-05-04 13:02 36.67944 -4.48541 46 ft 9 kts 58°
2026-05-04 13:02 36.67941 -4.48455 46 ft 13 kts 110°
2026-05-04 13:03 36.67929 -4.48416 45 ft 16 kts 110°
2026-05-04 13:03 36.67859 -4.48253 45 ft 23 kts 122°
2026-05-04 13:03 36.67836 -4.48202 44 ft 25 kts 118°
2026-05-04 13:03 36.67742 -4.47982 41 ft 32 kts 117°
2026-05-04 13:04 36.67736 -4.47879 39 ft 27 kts 68°
2026-05-04 13:04 36.67799 -4.47819 40 ft 23 kts 15°
2026-05-04 13:05 36.67886 -4.47882 44 ft 15 kts 299°
2026-05-04 13:05 36.67930 -4.47988 44 ft 15 kts 296°
2026-05-04 13:05 36.68101 -4.48408 42 ft 102 kts 297°
2026-05-04 13:05 36.68581 -4.49570 264 ft 185 kts 296°
2026-05-04 13:06 36.68881 -4.50392 681 ft 207 kts 292°
2026-05-04 13:06 36.69739 -4.52070 2036 ft 225 kts 312°
2026-05-04 13:06 36.70091 -4.52505 2553 ft 216 kts 313°
2026-05-04 13:06 36.70817 -4.53396 3733 ft 197 kts 314°
2026-05-04 13:07 36.71746 -4.54574 5054 ft 188 kts 313°
2026-05-04 13:07 36.72706 -4.55708 5900 ft 197 kts 318°
2026-05-04 13:07 36.73839 -4.56719 6588 ft 202 kts 326°
2026-05-04 13:07 36.74732 -4.57293 6860 ft 206 kts 333°
2026-05-04 13:08 36.76070 -4.57960 6998 ft 216 kts 336°
2026-05-04 13:08 36.77489 -4.58612 7004 ft 218 kts 337°
2026-05-04 13:08 36.78346 -4.59004 7005 ft 218 kts 336°
2026-05-04 13:08 36.79773 -4.59664 7003 ft 219 kts 336°
2026-05-04 13:09 36.80254 -4.59888 7004 ft 219 kts 336°
2026-05-04 13:09 36.80675 -4.60084 7001 ft 219 kts 336°
2026-05-04 13:09 36.81279 -4.60368 7004 ft 219 kts 336°
2026-05-04 13:09 36.81604 -4.60521 7003 ft 219 kts 336°
2026-05-04 13:10 36.83029 -4.61192 7003 ft 219 kts 336°
2026-05-04 13:10 36.84450 -4.61864 7004 ft 219 kts 336°
2026-05-04 13:10 36.85878 -4.62520 7004 ft 219 kts 338°
2026-05-04 13:10 36.87345 -4.63043 7005 ft 220 kts 344°
2026-05-04 13:11 36.88861 -4.63364 7003 ft 221 kts 350°
2026-05-04 13:11 36.89879 -4.63452 6995 ft 223 kts 355°
2026-05-04 13:11 36.91479 -4.63385 7006 ft 225 kts
2026-05-04 13:12 36.93034 -4.63078 7202 ft 228 kts
2026-05-04 13:12 36.93556 -4.62920 7389 ft 229 kts 10°
2026-05-04 13:12 36.95061 -4.62305 8266 ft 233 kts 17°
2026-05-04 13:13 36.96551 -4.61442 9297 ft 239 kts 24°
2026-05-04 13:13 36.97994 -4.60356 10249 ft 246 kts 28°
2026-05-04 13:13 36.99385 -4.59217 11104 ft 251 kts 28°
2026-05-04 13:13 36.99878 -4.58809 11400 ft 253 kts 28°
2026-05-04 13:14 37.01389 -4.57560 12311 ft 258 kts 28°
2026-05-04 13:14 37.02904 -4.56312 13213 ft 263 kts 28°
2026-05-04 13:14 37.04453 -4.55038 14044 ft 270 kts 28°
2026-05-04 13:14 37.06036 -4.53738 14860 ft 274 kts 28°
2026-05-04 13:15 37.07501 -4.52534 15634 ft 278 kts 28°
2026-05-04 13:15 37.09128 -4.51197 16508 ft 282 kts 28°
2026-05-04 13:15 37.10770 -4.49854 17576 ft 275 kts 33°
2026-05-04 13:16 37.12350 -4.48553 18353 ft 279 kts 29°
2026-05-04 13:16 37.14052 -4.47159 18676 ft 303 kts 29°
2026-05-04 13:16 37.15831 -4.45694 19405 ft 306 kts 29°
2026-05-04 13:16 37.17583 -4.44245 20208 ft 305 kts 29°
2026-05-04 13:17 37.19361 -4.42776 20990 ft 307 kts 28°
2026-05-04 13:17 37.21159 -4.41293 21687 ft 312 kts 28°
2026-05-04 13:17 37.22989 -4.39784 22402 ft 316 kts 28°
2026-05-04 13:17 37.24837 -4.38259 23122 ft 319 kts 28°
2026-05-04 13:18 37.26702 -4.36717 23721 ft 323 kts 27°
2026-05-04 13:18 37.28590 -4.35158 24246 ft 327 kts 27°
2026-05-04 13:18 37.30503 -4.33577 24760 ft 331 kts 27°
2026-05-04 13:18 37.32441 -4.31975 25273 ft 336 kts 27°
2026-05-04 13:19 37.34402 -4.30351 25774 ft 339 kts 26°
2026-05-04 13:19 37.35714 -4.29265 26089 ft 341 kts 26°
2026-05-04 13:19 37.38386 -4.27050 26717 ft 347 kts 26°
2026-05-04 13:19 37.40414 -4.25369 27227 ft 351 kts 26°
2026-05-04 13:20 37.42464 -4.23667 27703 ft 355 kts 26°
2026-05-04 13:20 37.44529 -4.21951 28168 ft 358 kts 26°
2026-05-04 13:20 37.46620 -4.20212 28626 ft 362 kts 26°
2026-05-04 13:20 37.48011 -4.19056 28933 ft 364 kts 25°
2026-05-04 13:21 37.50848 -4.16695 29515 ft 369 kts 25°
2026-05-04 13:21 37.52281 -4.15502 29843 ft 371 kts 25°
2026-05-04 13:21 37.54355 -4.13773 30227 ft 374 kts 25°
2026-05-04 13:21 37.56228 -4.12211 30553 ft 376 kts 25°
2026-05-04 13:22 37.58190 -4.10573 30904 ft 378 kts 25°
2026-05-04 13:22 37.60126 -4.08955 31256 ft 379 kts 25°
2026-05-04 13:22 37.62331 -4.07112 31628 ft 381 kts 25°
2026-05-04 13:22 37.64161 -4.05583 31949 ft 383 kts 25°
2026-05-04 13:23 37.65707 -4.04290 32244 ft 385 kts 25°
2026-05-04 13:23 37.67687 -4.02633 32575 ft 386 kts 25°
2026-05-04 13:23 37.69651 -4.00988 32873 ft 389 kts 25°
2026-05-04 13:23 37.71499 -3.99440 33125 ft 392 kts 25°
2026-05-04 13:24 37.73392 -3.97853 33381 ft 395 kts 25°
2026-05-04 13:24 37.75168 -3.96364 33623 ft 397 kts 25°
2026-05-04 13:24 37.77082 -3.94757 33847 ft 400 kts 25°
2026-05-04 13:25 37.80532 -3.91858 34258 ft 405 kts 25°
2026-05-04 13:25 37.82702 -3.90033 34506 ft 407 kts 25°
2026-05-04 13:25 37.84610 -3.88426 34702 ft 411 kts 25°
2026-05-04 13:25 37.85910 -3.87332 34816 ft 413 kts 25°
2026-05-04 13:26 37.87448 -3.86038 34985 ft 415 kts 26°
2026-05-04 13:26 37.88102 -3.85485 35071 ft 415 kts 26°
2026-05-04 13:26 37.90501 -3.83461 35382 ft 417 kts 25°
2026-05-04 13:26 37.92931 -3.81411 35552 ft 422 kts 25°
2026-05-04 13:27 37.95359 -3.79362 35731 ft 427 kts 25°
2026-05-04 13:27 37.97838 -3.77267 35957 ft 431 kts 26°
2026-05-04 13:27 38.00338 -3.75150 36202 ft 434 kts 26°
2026-05-04 13:27 38.02855 -3.73019 36466 ft 437 kts 26°
2026-05-04 13:28 38.05392 -3.70868 36698 ft 440 kts 26°
2026-05-04 13:28 38.07949 -3.68699 36935 ft 443 kts 26°
2026-05-04 13:28 38.10523 -3.66514 37191 ft 447 kts 26°
2026-05-04 13:28 38.13121 -3.64327 37416 ft 448 kts 25°
2026-05-04 13:29 38.15826 -3.62390 37685 ft 444 kts 17°
2026-05-04 13:29 38.18651 -3.60817 37917 ft 443 kts 13°
2026-05-04 13:29 38.21523 -3.59393 38124 ft 444 kts 11°
2026-05-04 13:29 38.24435 -3.58033 38366 ft 447 kts 11°
2026-05-04 13:30 38.27370 -3.56691 38574 ft 450 kts 11°
2026-05-04 13:30 38.30323 -3.55341 38757 ft 453 kts 11°
2026-05-04 13:30 38.33297 -3.53968 38953 ft 455 kts 11°
2026-05-04 13:30 38.36276 -3.52578 39146 ft 458 kts 12°
2026-05-04 13:31 38.39272 -3.51168 39322 ft 460 kts 12°
2026-05-04 13:31 38.42285 -3.49742 39471 ft 463 kts 12°
2026-05-04 13:31 38.45311 -3.48307 39669 ft 465 kts 12°
2026-05-04 13:31 38.48356 -3.46859 39861 ft 468 kts 13°
2026-05-04 13:32 38.51411 -3.45407 40044 ft 470 kts 13°
2026-05-04 13:32 38.54485 -3.43944 40208 ft 473 kts 13°
2026-05-04 13:32 38.57574 -3.42474 40376 ft 475 kts 13°
2026-05-04 13:32 38.60678 -3.40996 40552 ft 478 kts 13°
2026-05-04 13:33 38.63801 -3.39508 40759 ft 480 kts 13°
2026-05-04 13:33 38.66932 -3.38015 40912 ft 482 kts 14°
2026-05-04 13:33 38.70044 -3.36529 41073 ft 484 kts 14°
2026-05-04 13:33 38.73208 -3.35016 41255 ft 486 kts 14°
2026-05-04 13:34 38.76420 -3.33478 41463 ft 487 kts 14°
2026-05-04 13:34 38.79556 -3.31975 41673 ft 488 kts 14°
2026-05-04 13:34 38.82778 -3.30430 41882 ft 489 kts 14°
2026-05-04 13:34 38.85969 -3.28899 42133 ft 489 kts 15°
2026-05-04 13:35 38.89157 -3.27368 42334 ft 490 kts 15°
2026-05-04 13:35 38.95555 -3.24291 42707 ft 492 kts 15°
2026-05-04 13:35 38.98757 -3.22749 42887 ft 493 kts 15°
2026-05-04 13:36 39.01980 -3.21196 42956 ft 496 kts 15°
2026-05-04 13:36 39.08471 -3.18067 42950 ft 506 kts 16°
2026-05-04 13:37 39.15117 -3.14853 42942 ft 514 kts 16°
2026-05-04 13:37 39.21852 -3.11585 42936 ft 518 kts 16°
2026-05-04 13:38 39.28590 -3.08306 42933 ft 518 kts 16°
2026-05-04 13:38 39.35329 -3.05023 42928 ft 517 kts 16°
2026-05-04 13:39 39.42056 -3.01742 42938 ft 517 kts 16°
2026-05-04 13:39 39.48804 -2.98431 42938 ft 517 kts 16°
2026-05-04 13:40 39.55524 -2.95116 42952 ft 517 kts 17°
2026-05-04 13:40 39.62202 -2.91825 42943 ft 517 kts 17°
2026-05-04 13:41 39.68923 -2.88513 42950 ft 517 kts 17°
2026-05-04 13:41 39.75645 -2.85192 42950 ft 517 kts 17°
2026-05-04 13:42 39.85731 -2.80198 42944 ft 517 kts 17°
2026-05-04 13:42 39.92451 -2.76862 42957 ft 517 kts 17°
2026-05-04 13:43 39.99165 -2.73523 42949 ft 517 kts 17°
2026-05-04 13:43 40.05887 -2.70173 42961 ft 517 kts 17°
2026-05-04 13:44 40.12607 -2.66816 42945 ft 517 kts 17°
2026-05-04 13:44 40.19323 -2.63454 42965 ft 517 kts 17°
2026-05-04 13:45 40.26037 -2.60086 42953 ft 516 kts 17°
2026-05-04 13:45 40.32745 -2.56712 42956 ft 516 kts 17°
2026-05-04 13:46 40.39357 -2.53023 42953 ft 518 kts 22°
2026-05-04 13:46 40.45841 -2.48861 42964 ft 519 kts 23°
2026-05-04 13:47 40.52303 -2.44621 42956 ft 519 kts 23°
2026-05-04 13:47 40.58726 -2.40391 42956 ft 519 kts 23°
2026-05-04 13:48 40.65190 -2.36135 42960 ft 520 kts 23°
2026-05-04 13:48 40.71658 -2.31873 42959 ft 520 kts 23°
2026-05-04 13:49 40.78124 -2.27604 42960 ft 520 kts 23°
2026-05-04 13:49 40.84587 -2.23327 42964 ft 519 kts 23°
2026-05-04 13:50 40.91046 -2.19043 42964 ft 519 kts 23°
2026-05-04 13:50 40.97500 -2.14753 42959 ft 519 kts 23°
2026-05-04 13:51 41.03946 -2.10460 42959 ft 519 kts 23°
2026-05-04 13:51 41.10268 -2.05817 42953 ft 521 kts 28°
2026-05-04 13:52 41.19494 -1.98183 42946 ft 521 kts 29°
2026-05-04 13:53 41.25619 -1.93034 42943 ft 521 kts 29°
2026-05-04 13:53 41.31746 -1.87881 42942 ft 521 kts 29°
2026-05-04 13:54 41.40929 -1.80151 42943 ft 521 kts 29°
2026-05-04 13:55 41.50091 -1.72417 42943 ft 522 kts 30°
2026-05-04 13:55 41.59285 -1.64628 42949 ft 522 kts 30°
2026-05-04 13:56 41.65404 -1.59428 42945 ft 522 kts 30°
2026-05-04 13:57 41.74617 -1.51578 42946 ft 523 kts 30°
2026-05-04 13:58 41.86835 -1.41124 42944 ft 521 kts 30°
2026-05-04 13:58 41.95993 -1.33259 42947 ft 521 kts 30°
2026-05-04 13:59 42.02094 -1.28003 42944 ft 521 kts 30°
2026-05-04 14:00 42.11106 -1.19831 42951 ft 523 kts 36°
2026-05-04 14:00 42.19586 -1.10570 42968 ft 522 kts 38°
2026-05-04 14:01 42.25177 -1.04330 42957 ft 521 kts 38°
2026-05-04 14:02 42.33549 -0.94974 42955 ft 521 kts 38°
2026-05-04 14:02 42.39133 -0.88730 42966 ft 520 kts 38°
2026-05-04 14:03 42.44310 -0.81893 42970 ft 521 kts 49°
2026-05-04 14:03 42.48829 -0.74225 42967 ft 521 kts 51°
2026-05-04 14:04 42.55416 -0.62552 42968 ft 519 kts 52°
2026-05-04 14:04 42.59803 -0.54757 42975 ft 519 kts 52°
2026-05-04 14:05 42.66378 -0.43089 42978 ft 519 kts 52°
2026-05-04 14:06 42.70735 -0.35335 42978 ft 519 kts 52°
2026-05-04 14:06 42.75112 -0.27527 42981 ft 519 kts 52°
2026-05-04 14:07 42.79483 -0.19709 42972 ft 519 kts 52°
2026-05-04 14:07 42.83962 -0.12009 42972 ft 519 kts 50°
2026-05-04 14:08 42.88580 -0.04448 42962 ft 519 kts 50°
2026-05-04 14:08 42.93183 0.03130 42960 ft 518 kts 50°
2026-05-04 14:09 43.00026 0.14553 42963 ft 517 kts 50°
2026-05-04 14:10 43.06073 0.24716 42954 ft 519 kts 50°
2026-05-04 14:10 43.10625 0.32387 42930 ft 520 kts 51°
2026-05-04 14:11 43.15177 0.40077 42934 ft 520 kts 51°
2026-05-04 14:11 43.21994 0.51629 42930 ft 519 kts 51°
2026-05-04 14:12 43.26533 0.59346 42922 ft 519 kts 51°
2026-05-04 14:13 43.33327 0.70935 42928 ft 519 kts 51°
2026-05-04 14:13 43.37849 0.78676 42921 ft 519 kts 51°
2026-05-04 14:14 43.42368 0.86430 42921 ft 520 kts 51°
2026-05-04 14:14 43.49138 0.98085 42927 ft 520 kts 51°
2026-05-04 14:15 43.58148 1.13670 42931 ft 520 kts 51°
2026-05-04 14:16 43.64890 1.25388 42942 ft 519 kts 51°
2026-05-04 14:17 43.71553 1.37201 42944 ft 520 kts 53°
2026-05-04 14:18 43.77935 1.49319 42937 ft 520 kts 54°
2026-05-04 14:19 43.86468 1.65472 42938 ft 519 kts 53°
2026-05-04 14:19 43.90737 1.73539 42947 ft 519 kts 53°
2026-05-04 14:20 43.94996 1.81609 42949 ft 519 kts 53°
2026-05-04 14:20 43.99186 1.89766 42961 ft 519 kts 55°
2026-05-04 14:21 44.05262 2.02104 42961 ft 517 kts 56°
2026-05-04 14:21 44.09324 2.10340 42968 ft 517 kts 55°
2026-05-04 14:22 44.13400 2.18586 42979 ft 517 kts 55°
2026-05-04 14:22 44.17471 2.26833 42971 ft 517 kts 55°
2026-05-04 14:23 44.23571 2.39235 42985 ft 516 kts 56°
2026-05-04 14:24 44.27619 2.47500 42997 ft 516 kts 56°
2026-05-04 14:24 44.31662 2.55776 42996 ft 516 kts 56°
2026-05-04 14:25 44.35700 2.64067 42997 ft 516 kts 56°
2026-05-04 14:25 44.41696 2.76419 42611 ft 516 kts 56°
2026-05-04 14:26 44.43713 2.80585 41864 ft 517 kts 56°
2026-05-04 14:26 44.45719 2.84736 41289 ft 514 kts 56°
2026-05-04 14:26 44.47721 2.88883 40663 ft 513 kts 56°
2026-05-04 14:26 44.49717 2.93026 39998 ft 513 kts 56°
2026-05-04 14:27 44.51712 2.97172 39345 ft 513 kts 57°
2026-05-04 14:27 44.53702 3.01313 38699 ft 513 kts 57°
2026-05-04 14:27 44.55697 3.05473 37854 ft 514 kts 57°
2026-05-04 14:27 44.57700 3.09653 36897 ft 518 kts 57°
2026-05-04 14:28 44.59711 3.13856 36014 ft 520 kts 57°
2026-05-04 14:28 44.61722 3.18081 35141 ft 522 kts 57°
2026-05-04 14:28 44.63618 3.22444 34296 ft 524 kts 61°
2026-05-04 14:28 44.65397 3.26923 33323 ft 526 kts 62°
2026-05-04 14:29 44.68876 3.35990 31512 ft 528 kts 62°
2026-05-04 14:29 44.72378 3.44982 30128 ft 520 kts 62°
2026-05-04 14:30 44.74130 3.49415 29407 ft 516 kts 62°
2026-05-04 14:30 44.75868 3.53792 28779 ft 510 kts 62°
2026-05-04 14:30 44.79291 3.62402 27487 ft 499 kts 62°
2026-05-04 14:31 44.80971 3.66638 26915 ft 493 kts 62°
2026-05-04 14:31 44.84270 3.74983 25706 ft 482 kts 62°
2026-05-04 14:32 44.87489 3.83155 24543 ft 472 kts 62°
2026-05-04 14:32 44.89072 3.87185 23961 ft 467 kts 62°
2026-05-04 14:32 44.90636 3.91171 23340 ft 462 kts 63°
2026-05-04 14:32 44.92182 3.95114 22670 ft 457 kts 63°
2026-05-04 14:33 44.93691 3.98968 22008 ft 452 kts 63°
2026-05-04 14:33 44.95218 4.02874 21367 ft 447 kts 63°
2026-05-04 14:33 44.96709 4.06693 20747 ft 441 kts 63°
2026-05-04 14:33 44.98159 4.10414 20256 ft 435 kts 63°
2026-05-04 14:34 44.99615 4.14156 20076 ft 435 kts 63°
2026-05-04 14:34 45.01070 4.17903 20037 ft 435 kts 63°
2026-05-04 14:34 45.02525 4.21655 20026 ft 434 kts 63°
2026-05-04 14:34 45.03975 4.25393 20035 ft 434 kts 63°
2026-05-04 14:35 45.05428 4.29141 20035 ft 435 kts 63°
2026-05-04 14:35 45.06876 4.32890 20037 ft 435 kts 63°
2026-05-04 14:35 45.08326 4.36651 20031 ft 435 kts 63°
2026-05-04 14:35 45.09777 4.40414 20031 ft 435 kts 64°
2026-05-04 14:36 45.11222 4.44173 20034 ft 435 kts 63°
2026-05-04 14:36 45.12662 4.47920 20048 ft 432 kts 63°
2026-05-04 14:36 45.14094 4.51650 20041 ft 430 kts 63°
2026-05-04 14:36 45.15521 4.55369 20037 ft 430 kts 63°
2026-05-04 14:37 45.16949 4.59097 20033 ft 430 kts 63°
2026-05-04 14:37 45.18373 4.62823 20042 ft 430 kts 63°
2026-05-04 14:37 45.19796 4.66553 20025 ft 430 kts 63°
2026-05-04 14:37 45.21216 4.70280 20036 ft 430 kts 63°
2026-05-04 14:38 45.22636 4.74007 20036 ft 430 kts 63°
2026-05-04 14:38 45.24059 4.77744 20036 ft 430 kts 63°
2026-05-04 14:38 45.25478 4.81478 20037 ft 430 kts 63°
2026-05-04 14:38 45.26895 4.85210 20040 ft 430 kts 63°
2026-05-04 14:39 45.28308 4.88938 20046 ft 430 kts 63°
2026-05-04 14:39 45.29729 4.92693 20049 ft 430 kts 63°
2026-05-04 14:39 45.31140 4.96426 20037 ft 431 kts 63°
2026-05-04 14:40 45.33971 5.03935 20048 ft 430 kts 63°
2026-05-04 14:40 45.35383 5.07690 20031 ft 430 kts 63°
2026-05-04 14:40 45.36793 5.11443 20048 ft 431 kts 63°
2026-05-04 14:40 45.38205 5.15202 20052 ft 430 kts 63°
2026-05-04 14:41 45.39612 5.18957 20036 ft 430 kts 63°
2026-05-04 14:41 45.41018 5.22714 20036 ft 430 kts 63°
2026-05-04 14:41 45.43827 5.30242 20051 ft 430 kts 63°
2026-05-04 14:42 45.46632 5.37780 20039 ft 430 kts 63°
2026-05-04 14:42 45.48179 5.41418 20056 ft 431 kts 54°
2026-05-04 14:42 45.50225 5.44544 20058 ft 432 kts 40°
2026-05-04 14:43 45.52685 5.46978 20050 ft 431 kts 31°
2026-05-04 14:43 45.55266 5.49170 20050 ft 432 kts 30°
2026-05-04 14:43 45.57860 5.51330 20049 ft 432 kts 29°
2026-05-04 14:43 45.60455 5.53486 20048 ft 432 kts 29°
2026-05-04 14:44 45.63047 5.55644 20049 ft 432 kts 29°
2026-05-04 14:44 45.65647 5.57810 20051 ft 431 kts 29°
2026-05-04 14:44 45.68235 5.59967 20050 ft 431 kts 29°
2026-05-04 14:44 45.70846 5.62063 20050 ft 430 kts 27°
2026-05-04 14:45 45.73474 5.64114 20054 ft 430 kts 27°
2026-05-04 14:45 45.76099 5.66166 20055 ft 430 kts 28°
2026-05-04 14:45 45.78727 5.68226 20056 ft 430 kts 28°
2026-05-04 14:45 45.81352 5.70298 20054 ft 430 kts 28°
2026-05-04 14:46 45.83970 5.72372 20055 ft 430 kts 28°
2026-05-04 14:46 45.86577 5.74478 20054 ft 430 kts 30°
2026-05-04 14:46 45.88863 5.77140 20020 ft 429 kts 47°
2026-05-04 14:46 45.90728 5.80479 19518 ft 421 kts 54°
2026-05-04 14:47 45.92412 5.83848 18814 ft 420 kts 54°
2026-05-04 14:47 45.94117 5.87286 18213 ft 415 kts 54°
2026-05-04 14:47 45.95861 5.90481 17514 ft 411 kts 47°
2026-05-04 14:47 45.97834 5.93436 16782 ft 407 kts 45°
2026-05-04 14:48 45.99829 5.96300 16019 ft 405 kts 45°
2026-05-04 14:48 46.01821 5.99155 15351 ft 402 kts 45°
2026-05-04 14:48 46.03783 6.01974 14771 ft 396 kts 45°
2026-05-04 14:48 46.05724 6.04767 14126 ft 392 kts 45°
2026-05-04 14:49 46.07628 6.07513 13746 ft 381 kts 45°
2026-05-04 14:49 46.09469 6.10171 13448 ft 368 kts 45°
2026-05-04 14:49 46.11232 6.12737 13182 ft 354 kts 46°
2026-05-04 14:49 46.12919 6.15244 12937 ft 342 kts 47°
2026-05-04 14:50 46.14544 6.17665 12682 ft 330 kts 47°
2026-05-04 14:50 46.16113 6.20002 12431 ft 319 kts 46°
2026-05-04 14:50 46.17632 6.22263 12196 ft 308 kts 47°
2026-05-04 14:50 46.19101 6.24448 11983 ft 298 kts 47°
2026-05-04 14:51 46.20524 6.26557 11821 ft 289 kts 47°
2026-05-04 14:51 46.21911 6.28589 11653 ft 280 kts 47°
2026-05-04 14:51 46.23252 6.30551 11503 ft 270 kts 47°
2026-05-04 14:51 46.24552 6.32457 11308 ft 263 kts 47°
2026-05-04 14:52 46.25842 6.34355 10843 ft 268 kts 47°
2026-05-04 14:52 46.27187 6.36336 10088 ft 285 kts 48°
2026-05-04 14:52 46.28633 6.38472 8958 ft 310 kts 48°
2026-05-04 14:52 46.30192 6.40772 7950 ft 327 kts 47°
2026-05-04 14:53 46.31789 6.43124 7347 ft 325 kts 46°
2026-05-04 14:53 46.33344 6.45426 7056 ft 313 kts 46°
2026-05-04 14:53 46.34827 6.47626 6832 ft 299 kts 46°
2026-05-04 14:53 46.36249 6.49737 6614 ft 287 kts 46°
2026-05-04 14:54 46.37682 6.51648 6387 ft 277 kts 35°
2026-05-04 14:54 46.39446 6.52471 6285 ft 260 kts 360°
2026-05-04 14:54 46.41104 6.51799 6114 ft 242 kts 327°
2026-05-04 14:54 46.42184 6.50103 6003 ft 222 kts 296°
2026-05-04 14:55 46.42559 6.47986 6001 ft 217 kts 270°
2026-05-04 14:55 46.42235 6.45893 5990 ft 215 kts 243°
2026-05-04 14:55 46.41702 6.44691 6004 ft 214 kts 232°
2026-05-04 14:55 46.40461 6.42515 5676 ft 204 kts 228°
2026-05-04 14:56 46.39865 6.41500 5547 ft 196 kts 227°
2026-05-04 14:56 46.38995 6.40014 5169 ft 194 kts 228°
2026-05-04 14:56 46.38146 6.38478 4661 ft 198 kts 234°
2026-05-04 14:56 46.37584 6.36644 4218 ft 201 kts 253°
2026-05-04 14:57 46.37313 6.34645 4002 ft 204 kts 258°
2026-05-04 14:57 46.37084 6.32612 3985 ft 205 kts 258°
2026-05-04 14:57 46.36735 6.30631 3989 ft 203 kts 245°
2026-05-04 14:57 46.36018 6.28896 3989 ft 201 kts 229°
2026-05-04 14:58 46.35054 6.27440 3988 ft 200 kts 224°
2026-05-04 14:58 46.34085 6.26043 3844 ft 197 kts 225°
2026-05-04 14:58 46.33134 6.24638 3474 ft 195 kts 225°
2026-05-04 14:58 46.32196 6.23247 3061 ft 194 kts 225°
2026-05-04 14:59 46.31244 6.21836 2621 ft 196 kts 225°
2026-05-04 14:59 46.30298 6.20443 2240 ft 192 kts 225°
2026-05-04 14:59 46.28480 6.17767 1928 ft 187 kts 225°
2026-05-04 15:00 46.27573 6.16433 1983 ft 182 kts 225°
2026-05-04 15:00 46.26749 6.15222 1968 ft 155 kts 225°
2026-05-04 15:00 46.26036 6.14173 1779 ft 141 kts 225°
2026-05-04 15:01 46.24685 6.12181 1479 ft 137 kts 226°
2026-05-04 15:01 46.24041 6.11257 1402 ft 121 kts 225°
2026-05-04 15:01 46.23513 6.10476 1405 ft 77 kts 226°
2026-05-04 15:01 46.23294 6.10174 1407 ft 37 kts 214°
2026-05-04 15:02 46.23137 6.10093 1405 ft 11 kts 184°
2026-05-04 15:02 46.23126 6.10094 1406 ft 0 kts 173°
2026-05-04 15:03 46.23120 6.10096 1403 ft 4 kts 172°
2026-05-04 15:03 46.23087 6.10133 1403 ft 6 kts 115°
2026-05-04 15:03 46.23130 6.10236 1405 ft 23 kts 52°
2026-05-04 15:03 46.23274 6.10457 1406 ft 35 kts 45°
2026-05-04 15:04 46.23455 6.10718 1383 ft 34 kts 44°
2026-05-04 15:04 46.23614 6.10943 1380 ft 33 kts 44°
2026-05-04 15:04 46.23641 6.10998 1379 ft 1 kts 105°
2026-05-04 15:04 46.23637 6.11002 1382 ft 1 kts 129°
2026-05-04 15:05 46.23605 6.11029 1380 ft 7 kts 141°
2026-05-04 15:05 46.23594 6.11043 1378 ft 3 kts 139°
2026-05-04 15:05 46.23590 6.11047 1378 ft 0 kts 137°